User: anonymous   Login
Location: Cypress Hills Dark-Sky Preserve - CHICO
(49.6176°N, 110.2634°W)
Time: 06:19:37
(UTC-07:00)
Language:

SPOT 5 - Orbit

View from above orbital plane
View from above orbital plane
View from above satellite
View from above satellite

Ground track
Ground track

The orbit data is extracted from the following two-line orbital elements,

1 27421U 02021A   17024.10676701  .00000003  00000-0  12231-4 0  9999
2 27421  98.4265  87.1087 0136442  49.8191 311.4869 14.51837392764760
Epoch (UTC): 24 January 2017 02:33:44
Eccentricity: 0.0136442
inclination: 98.4265°
perigee height: 623 km
apogee height: 816 km
right ascension of ascending node: 87.1087°
argument of perigee: 49.8191°
revolutions per day: 14.51837392
mean anomaly at epoch: 311.4869°
orbit number at epoch: 76476

The dashed part of the orbit path shows where the satellite is in the earth's shadow,  

DLR